Date,TemperatureHighF,TemperatureAvgF,TemperatureLowF,DewpointHighF,DewpointAvgF,DewpointLowF,HumidityHigh,HumidityAvg,HumidityLow,PressureMaxIn,PressureMinIn,WindSpeedMaxMPH,WindSpeedAvgMPH,GustSpeedMaxMPH,PrecipitationSumIn
2013-9-1,72,68,60,-100,-100,-100,0,0,100,29.99,29.68,23,13,0,0.00
2013-9-2,61,57,54,-100,-100,-100,0,0,100,30.11,29.99,18,11,0,0.00
2013-9-3,72,65,56,-100,-100,-100,0,0,100,30.02,29.90,18,7,0,0.00
2013-9-4,67,59,54,-100,-100,-100,0,0,100,30.09,29.88,38,18,0,0.00
2013-9-5,70,63,54,-100,-100,-100,0,0,100,30.26,30.11,23,14,0,0.00
2013-9-6,65,59,51,-100,-100,-100,0,0,100,30.27,30.00,22,12,0,0.00
2013-9-7,67,62,58,-100,-100,-100,0,0,100,30.05,29.84,24,11,0,0.00
2013-9-8,64,60,59,-100,-100,-100,0,0,100,30.21,30.07,15,8,0,0.00
2013-9-9,71,61,54,-100,-100,-100,0,0,100,30.09,29.92,17,11,0,0.00
2013-9-10,93,83,73,-100,-100,-100,0,0,100,30.00,29.90,18,10,0,0.00
2013-9-11,83,73,66,-100,-100,-100,0,0,100,30.02,29.89,20,10,0,0.00
2013-9-12,64,57,53,-100,-100,-100,0,0,100,30.13,29.85,34,19,0,0.00
2013-9-13,54,50,49,-100,-100,-100,0,0,100,30.27,30.17,21,14,0,0.00
2013-9-14,65,56,45,-100,-100,-100,0,0,100,30.16,30.09,17,8,0,0.00
2013-9-15,62,59,54,-100,-100,-100,0,0,100,30.13,30.05,17,8,0,0.00
2013-9-16,51,46,42,-100,-100,-100,0,0,100,30.44,30.17,36,11,0,0.00
2013-9-17,65,56,50,-100,-100,-100,0,0,100,30.35,30.16,28,7,0,0.00
2013-9-18,55,53,50,-100,-100,-100,0,0,100,30.19,30.13,16,9,0,0.00
2013-9-19,75,69,61,-100,-100,-100,0,0,100,30.07,29.93,22,11,0,0.00
2013-9-20,87,75,68,-100,-100,-100,0,0,100,29.98,29.75,16,9,0,0.00
2013-9-21,68,63,53,-100,-100,-100,0,0,100,29.77,29.65,34,14,0,0.00
2013-9-22,51,45,40,-100,-100,-100,0,0,100,30.11,29.87,22,13,0,0.00
2013-9-23,59,56,53,-100,-100,-100,0,0,100,30.01,29.94,33,9,0,0.00
2013-9-24,64,60,57,-100,-100,-100,0,0,100,30.06,29.98,18,9,0,0.00
2013-9-25,63,56,51,-100,-100,-100,0,0,100,30.06,30.01,15,6,0,0.00
2013-9-26,69,62,49,-100,-100,-100,0,0,100,30.14,30.06,11,7,0,0.00
2013-9-27,68,62,56,-100,-100,-100,0,0,100,30.24,30.17,20,8,0,0.00
2013-9-28,74,64,56,-100,-100,-100,0,0,100,30.22,30.09,18,9,0,0.00
2013-9-29,65,61,56,-100,-100,-100,0,0,100,30.03,29.88,28,17,0,0.00
2013-9-30,61,60,60,-100,-100,-100,0,0,100,29.78,29.74,32,27,0,0.00